Regional Weather Roundup
Issued by NWS

Home | Current Version | Previous Version | Text Only | Print | Product List | Glossary On
Versions: 1 2 3 4 5 6 7 8 9 10 11 12 13 14 15 16 17 18 19 20 21 22 23 24 25 26 27 28 29 30 31 32 33 34 35 36 37 38 39 40 41 42 43 44 45 46 47 48 49 50
000
ASUS44 KLUB 222210
RWRTX
WEST TEXAS WEATHER ROUNDUP
NATIONAL WEATHER SERVICE LUBBOCK TX
500 PM CDT TUE JUL 22 2014

NOTE: "FAIR" INDICATES FEW OR NO CLOUDS BELOW 12,000 FEET WITH NO
SIGNIFICANT WEATHER AND/OR OBSTRUCTIONS TO VISIBILITY.

TXZ004-006>008-010-012-014-016-OKZ002-222300-
TEXAS PANHANDLE/OKLAHOMA PANHANDLE

CITY           SKY/WX    TMP DP  RH WIND       PRES   REMARKS
AMARILLO       MOSUNNY   92  66  42 S13G18    30.16F
BORGER         MOSUNNY   95  64  35 SE13      30.12F HX  97
CANADIAN       MOSUNNY   97  62  32 SE15G23   30.09F HX  98
DALHART        SUNNY     93  60  33 S12       30.20S
DUMAS          MOSUNNY   92  63  37 SE9       30.17S
GUYMON         SUNNY     96  63  33 E9        30.10F HX  97
HEREFORD       SUNNY     91  66  43 S8        30.18F
PAMPA          SUNNY     92  60  33 SE10G17   30.16S
PERRYTON       CLOUDY    84  69  61 SE8       30.12S
$$

TXZ026-029-035-045-048-222300-
SOUTHERN PANHANDLE/SOUTH PLAINS/ROLLING PLAINS

CITY           SKY/WX    TMP DP  RH WIND       PRES   REMARKS
CHILDRESS      SUNNY     97  62  31 SE7       30.07F HX  98
SEMINOLE       MOSUNNY   93  54  26 E13       30.14F
LUBBOCK        PTSUNNY   91  55  29 S12       30.17R
PLAINVIEW      MOSUNNY   90  65  43 SE10      30.15S
SNYDER         MOSUNNY   95  64  34 SE12      30.09F HX  97
$$

TXZ052-054-060>062-072-078-127-140-154-169-222300-
PERMIAN BASIN/CONCHO VALLEY/BIG COUNTRY/EDWARDS PLATEAU

CITY           SKY/WX    TMP DP  RH WIND       PRES   REMARKS
ABILENE        SUNNY     97  66  36 E5        30.06F HX 100
BIG SPRING       N/A     99  58  25 S3        30.10F HX  98
BRADY          SUNNY     95  64  36 E7        30.07S HX  97
BROWNWOOD      LGT RAIN  95  68  41 E8        30.05F HX  99
JUNCTION       SUNNY     96  61  31 MISG      30.04F HX  96
MIDLAND        PTSUNNY   85  66  53 E29G39    30.11R BLWGDUST
ODESSA         MOSUNNY   97  53  22 E14       30.10F
SAN ANGELO     MOSUNNY   98  63  31 E10       30.04F HX 100
SONORA         MOSUNNY   97  57  26 VRB6G12   30.08F HX  95
SWEETWATER     MOSUNNY   96  55  25 E9        30.11F
WINK           MOSUNNY  100  53  20 E15G24    30.05S HX  98
$$

TXZ055-058-074-075-080-082-222300-
FAR WEST/SOUTHWEST MOUNTAINS/TRANS PECOS

CITY           SKY/WX    TMP DP  RH WIND       PRES   REMARKS
ALPINE         CLOUDY    90  56  31 SE6       30.21F
DRYDEN           N/A    102  60  25 E13G24    30.01F HX 103
EL PASO        MOSUNNY   99  51  19 MISG      30.06F HX  96
FORT STOCKTON  MOSUNNY   94  58  29 E14       30.08F
GUADALUPE PASS MOSUNNY   88  55  32 NE18G31   30.26S
MARFA          MOSUNNY   91  55  29 E9        30.20F
PECOS          SUNNY     99  55  22 E12       30.04S HX  98
PRESIDIO       FAIR     102  53  19 NE8       29.99F HX  99
$$

TXZ014-016-019-021>030-083-222300
TEXAS TECH WEST TEXAS MESONET/TEXAS PANHANDLE/NORTHERN SOUTH PLAINS

CITY           SKY/WX    TMP DP  RH WIND       PRES   REMARKS
ABERNATHY 5ENE   N/A     86  62  43 S13       30.18R
AMARILLO 9NNE    N/A     94  66  39 SE7       30.13F HX  97
AMARILLO 7SSE    N/A     92  68  44 SE13      30.17F HX  96
AMHERST 1NE      N/A     85  62  44 SE24G35   30.19R
BOOTLEG 11WNW    N/A     88  63  42 S5        30.24F
CANADIAN 6E      N/A     92  64  38 SE13      30.09F
CAPROCK CYN SP   N/A     94  65  38 SE10      30.11S HX  96
CHILDRESS 2NNE   N/A     98  58  27 SE13      30.06F HX  97
CLARENDON 2WSW   N/A     93  65  40 SE9       30.12F HX  95
CLAUDE 12SW      N/A     89  68  48 SE12      30.16S
DIMMITT 2NE      N/A     91  60  34 SE8       30.18F
FLOYDADA 2NNE    N/A     92  64  39 E10       30.14F
FRIONA 2NE       N/A     91  60  36 E8        30.20F
GOODLETT 3W      N/A     98  62  30 SE10      30.04F HX  99
HEREFORD 2NW     N/A     91  62  38 S6        30.18F
MCLEAN 1E        N/A     92  62  36 SE10      30.13S
MEMPHIS 1NE      N/A     97  60  29 SE8       30.07F HX  97
MULESHOE 2SSW    N/A     91  55  29 SE5       30.18F
OLTON 6S         N/A     89  63  42 E15       30.16S
PALO DURO SP     N/A     90  67  45 SE8       30.17S
PAMPA 2E         N/A     90  65  43 SE12      30.15F
PLAINVIEW 1S     N/A     90  63  40 SE10      30.15R
SILVERTON 7ESE   N/A     92  66  42 SE8       30.15S
TULIA 2ENE       N/A     88  64  45 E12       30.16S
TURKEY 2WSW      N/A     96  61  31 SE8       30.09S HX  96
UMBARGER 3NNE    N/A     90  65  43 S7        30.18F
$$

TXZ033>036-039>041-045>048-222300
TEXAS TECH WEST TEXAS MESONET/SOUTH PLAINS

CITY           SKY/WX    TMP DP  RH WIND       PRES   REMARKS
AIKEN 3WSW       N/A     91  67  45 SE9       30.17R
ANDREWS 2NE      N/A     96  45  17 E12       30.12F
ANTON 6SSW       N/A     75  66  72 SW9       30.19R
BROWNFIELD 2S    N/A     80  63  56 N8        30.16F
DENVR CTY 7WNW   N/A     89  55  31 NE16      30.16S
GAIL 2ESE        N/A     93  58  30 E7        30.08F
LAMESA 2SE       N/A     92  58  31 E8        30.13S
LEVELLAND 4S     N/A     75  65  71 W7        30.18F
LUBBOCK 3WNW     N/A     83  62  48 W8        30.17R
MORTON 1ENE      N/A     89  59  37 SE17      30.18S
ODONNELL 1N      N/A     92  50  23 SE5       30.13F
PLAINS 3N        N/A     87  63  45 E14       30.18S
RALLS 1SE        N/A     91  64  40 SE12      30.15F
REESE CENTER     N/A     77  64  64 W9        30.17S
SEAGRAVES 1SW    N/A     90  54  29 E10       30.14F
SEMINOLE 2NNE    N/A     92  53  26 E10       30.13F
SLATON 2NE       N/A     91  60  35 SE8       30.15F
SNYDER 3E        N/A     99  60  27 SE12      30.08F HX  98
SUNDOWN 8SW      N/A     85  61  44 E10       30.17F
TAHOKA 3NNE      N/A     93  55  27 SE8       30.14S
WOLFFORTH 6SSW   N/A     81  64  56 W6        30.17S
$$

TXZ031-032-036>038-042>044-222300-
TEXAS TECH WEST TEXAS MESONET/ROLLING PLAINS

CITY           SKY/WX    TMP DP  RH WIND       PRES   REMARKS
ASPERMONT 3NE    N/A     99  65  33 E8        30.05S HX 101
FLUVANNA 3WNW    N/A     94  55  26 E5        30.11S
GRAHAM 5SSW      N/A     92  58  31 E7        30.12F
GUTHRIE 10WSW    N/A     97  64  34 SE6       30.06S HX  99
HASKELL 1NW      N/A     97  59  27 E6        30.04F HX  96
JAYTON 1SSE      N/A     98  61  28 E8        30.05F HX  99
KNOX CITY 3NW    N/A    100  56  23 E8        30.04S HX  98
LK A HENRY 1NW   N/A     97  61  30 NW7       30.07F HX  98
NORTHFIELD 1S    N/A     97  63  32 SE8       30.06F HX  99
ODELL 4ENE       N/A     97  65  34 SE9       30.05F HX  99
PADUCAH 10SW     N/A     97  63  32 SE9       30.06F HX  98
POST 1NE         N/A     94  57  28 SE3       30.10F
RRING SPRGS 3N   N/A     95  58  29 S7        30.11S
SEYMOUR 3NW      N/A     98  60  27 E9        30.03F HX  98
SPUR 1W          N/A     95  59  29 E10       30.07F
WEINERT 2NNE     N/A     98  63  31 CALM      30.04F HX 100
WHITE RVR 6NE    N/A     96  62  32 SE8       30.10F HX  97
$$

TXZ052-054-060>062-072-078-127-140-154-169-222300-
TEXAS TECH WEST TEXAS MESONET/PERMIAN BASIN/
CONCHO VALLEY/BIG COUNTRY/EDWARDS PLATEAU

CITY           SKY/WX    TMP DP  RH WIND       PRES   REMARKS
COYANOSA 2N      N/A    100  59  25 E14       30.04F HX 100
JUNCTION 1SSW    N/A     96  65  35 NE7       30.04F HX  98
MERTZON 3NNE     N/A     98  62  30 E6        30.06S HX  99
SAN ANGELO 7NW   N/A     98  60  29 E13       30.05F HX  98
STRLNG CT 4WSW   N/A     98  57  25 E9        30.07F HX  97
ST LAWRNCE 5SW   N/A     92  55  28 E9        30.10S
SWEETWATR 11SW   N/A     99  58  26 E12       30.10S HX  98
WALL 1E          N/A     95  62  33 E12       30.06S HX  96
$$

TXZ055-058-074-075-080-082-222300-
TEXAS TECH WEST TEXAS MESONET/FAR WEST/SOUTHWEST MOUNTAINS/TRANS PECOS

CITY           SKY/WX    TMP DP  RH WIND       PRES   REMARKS
GUADLPE MTN NP   N/A     86  53  32 E14       30.28S
$$



USA.gov is the U.S. government's official web portal to all federal, state and local government web resources and services.